Weather in Sapernoye

Russia / Saint-Petersburg and Leningrad Oblast     60°42′40″N   29°57′44″E
temp.,
°C
wind,
m/s
gust,
m/s
humid.,
%
clouds,
%
prec.,
mm/h
press.,
hPa
HPBL,
m
9 march, tue
tue900:00−14n2496100 0.0 1018117
03:00−16nne1298100 0.1 101966
06:00−18ne129962 0.0 102058
09:00−17ene259576 0.0 1022216
12:00−14ene2384100 0.0 1023511
15:00−13ene3582100 0.1 1024560
18:00−15e3691100 0.0 1025405
21:00−18ese249791 0.0 1027127
10 march, wed
wed1000:00−18ese239799 0.0 1028106
03:00−20ese249698 0.0 102996
06:00−21ese24951 0.0 103094
09:00−20se258938 0.0 1031151
12:00−14e236783 0.0 1032349
15:00−10ese236472 0.0 1032479
18:00−13ese258358 0.0 1031168
21:00−17se258429 0.0 103196
11 march, thu
thu1100:00−16se25850 0.0 1030114
03:00−16sse38840 0.0 1029190
06:00−16sse311820 0.0 1027274
09:00−13sse411700 0.0 1026403
12:00−9s487841 0.0 1024501
15:00−6s478369 0.0 1022525
18:00−7s3990100 0.0 1020505
21:00−8s4139295 0.0 1019448
12 march, fri
fri1200:00−7s4129144 0.0 1017440
03:00−8s4139129 0.0 1015471
06:00−9s5139060 0.0 1013534
09:00−8s6148569 0.0 1011651
12:00−4s6147871 0.0 1010805
15:00−2s6127585 0.0 1008922
18:00−3s5137997 0.0 10061026
21:00−4s5138897 0.0 1006873
13 march, sat
sat1300:00−4s5128996 0.1 1005757
03:00−4s4119598 1.1 1003708
06:00−4s41192100 0.8 1002586
09:00−3s41091100 1.1 1002472
12:000s4994100 0.2 1002498
15:00+1ssw41096100 0.5 1001695
18:00+1s51297100 0.2 1000722
21:00+1ssw51197100 2.3 998717